Weather History for Pellston, MI

Change the Weather History Date:

Tuesday, May 7, 2013

  Actual Average Record
Temperature  
Mean Temperature 57 °F -  
Max Temperature 79 °F 62 °F 83 °F (1965)
Min Temperature 36 °F 34 °F 11 °F (1966)
Degree Days  
Heating Degree Days 8    
Growing Degree Days 7 (Base 50)    
Moisture  
Dew Point 32 °F    
Average Humidity 47    
Maximum Humidity 93    
Minimum Humidity 15    
Precipitation  
Precipitation 0.00 in - - ()
Sea Level Pressure  
Sea Level Pressure 30.07 in    
Wind  
Wind Speed 4 mph (ENE)    
Max Wind Speed 14 mph    
Max Gust Speed 21 mph    
Visibility 10 miles    
Events      
Averages and records for this station are not official NWS values.
T = Trace of Precipitation, MM = Missing Value Source: NWS Daily Summary

Daily Weather History Graph

Daily Weather History Graph

Search for Another Location

Airport:

Trip Planner

Search our weather history database for the weather conditions in past years. The results will help you decide how hot, cold, wet, or windy it might be!

Date:

Astronomy

May. 07, 2013 Rise Set
Actual Time 6:18 AM EDT 8:54 PM EDT
Civil Twilight 5:44 AM EDT 9:27 PM EDT
Nautical Twilight 5:02 AM EDT 10:10 PM EDT
Astronomical Twilight 4:13 AM EDT 10:59 PM EDT
Moon 4:58 AM EDT (5/7) 6:47 PM EDT (5/7)
Length of Visible Light 15h 43m
Length of Day
14h 35m
Waning Crescent, 5% of the Moon is Illuminated
May 7
Waning Crescent
May 9
New
May 18
First Quarter
May 25
Full
May 31
Last Quarter

Hourly Weather History & Observations

Time (EDT) Temp. Windchill Dew Point Humidity Pressure Visibility Wind Dir Wind Speed Gust Speed Precip Events Conditions
12:54 AM 48.9 °F - 39.9 °F 71% 30.07 in 10.0 mi North 3.5 mph - N/A   Clear
1:54 AM 41.0 °F - 36.0 °F 82% 30.07 in 10.0 mi Calm Calm - N/A   Clear
2:54 AM 39.0 °F - 35.1 °F 86% 30.07 in 10.0 mi Calm Calm - N/A   Clear
3:54 AM 37.0 °F - 34.0 °F 89% 30.07 in 10.0 mi Calm Calm - N/A   Clear
4:54 AM 36.0 °F - 33.1 °F 89% 30.07 in 10.0 mi Calm Calm - N/A   Clear
5:54 AM 36.0 °F 33.3 °F 34.0 °F 93% 30.07 in 10.0 mi North 3.5 mph - N/A   Clear
6:54 AM 36.0 °F - 33.1 °F 89% 30.09 in 10.0 mi Calm Calm - N/A   Clear
7:54 AM 46.0 °F - 39.9 °F 79% 30.10 in 10.0 mi Calm Calm - N/A   Clear
9:54 AM 64.9 °F - 37.9 °F 37% 30.12 in 10.0 mi Calm Calm - N/A   Clear
10:54 AM 71.1 °F - 33.1 °F 25% 30.12 in 10.0 mi East 4.6 mph - N/A   Clear
11:54 AM 73.0 °F - 28.0 °F 19% 30.11 in 10.0 mi Variable 3.5 mph - N/A   Clear
12:54 PM 75.9 °F - 30.9 °F 19% 30.09 in 10.0 mi SSE 9.2 mph 16.1 mph N/A   Clear
1:54 PM 77.0 °F - 26.1 °F 15% 30.08 in 10.0 mi Variable 3.5 mph 16.1 mph N/A   Clear
2:54 PM 78.1 °F - 32.0 °F 19% 30.06 in 10.0 mi ENE 13.8 mph - N/A   Clear
3:54 PM 78.1 °F - 30.9 °F 18% 30.05 in 10.0 mi ENE 13.8 mph - N/A   Clear
4:54 PM 77.0 °F - 28.9 °F 17% 30.04 in 10.0 mi NE 11.5 mph 20.7 mph N/A   Clear
5:54 PM 75.9 °F - 28.0 °F 17% 30.03 in 10.0 mi NE 11.5 mph 19.6 mph N/A   Clear
6:54 PM 75.0 °F - 27.0 °F 17% 30.04 in 10.0 mi ENE 13.8 mph 19.6 mph N/A   Clear
7:54 PM 72.0 °F - 28.9 °F 20% 30.03 in 10.0 mi ENE 10.4 mph - N/A   Clear
8:54 PM 64.9 °F - 30.0 °F 27% 30.04 in 10.0 mi ENE 4.6 mph - N/A   Clear
9:54 PM 57.9 °F - 30.0 °F 35% 30.05 in 10.0 mi Calm Calm - N/A   Clear
10:54 PM 50.0 °F - 34.0 °F 54% 30.06 in 10.0 mi Calm Calm - N/A   Clear
11:54 PM 48.0 °F - 33.1 °F 56% 30.05 in 10.0 mi Calm Calm - N/A   Clear